| time (UTC) | temp C | wind direction | speed KPH | gust KPH | rain 1hr cm | rain 24hr cm | rain mn cm | humidity % | barometer mb |
| 20260507074726 | 9 | 0.0 | 0.0 | 0.00 | 0.00 | 0.00 | 27 | 1016.4 | |
| 20260507072726 | 8 | 0.0 | 0.0 | 0.00 | 0.00 | 0.00 | 30 | 1016.4 | |
| 20260507070726 | 8 | 0.0 | 0.0 | 0.00 | 0.00 | 0.00 | 32 | 1016.4 | |
| 20260507064726 | 8 | 0.0 | 0.0 | 0.00 | 0.00 | 0.00 | 34 | 1016.5 | |
| 20260507062726 | 8 | 0.0 | 0.0 | 0.00 | 0.00 | 0.00 | 38 | 1016.4 | |
| 20260507060725 | 7 | 0.0 | 0.0 | 0.00 | 0.00 | 0.00 | 41 | 1016.3 | |
| 20260507054725 | 7 | 0.0 | 0.0 | 0.00 | 0.00 | 0.00 | 45 | 1016.3 | |
| 20260507052725 | 5 | 0.0 | 0.0 | 0.00 | 0.00 | 0.00 | 47 | 1016.3 | |
| 20260507050725 | 5 | 0.0 | 0.0 | 0.00 | 0.00 | 0.00 | 49 | 1016.5 | |
| 20260507044725 | 4 | 0.0 | 0.0 | 0.00 | 0.00 | 0.00 | 52 | 1016.6 | |
| 20260507042725 | 1 | 0.0 | 0.0 | 0.00 | 0.00 | 0.00 | 69 | 1016.6 | |
| 20260507034725 | -1 | 0.0 | 0.0 | 0.00 | 0.00 | 0.00 | 84 | 1016.9 | |
| 20260507032726 | -3 | 0.0 | 0.0 | 0.00 | 0.00 | 0.00 | 89 | 1016.9 | |
| 20260507030726 | -4 | 0.0 | 0.0 | 0.00 | 0.00 | 0.00 | 89 | 1017.0 | |
| 20260507024725 | -5 | 0.0 | 0.0 | 0.00 | 0.00 | 0.00 | 89 | 1016.9 | |
| 20260507020725 | -4 | 0.0 | 0.0 | 0.00 | 0.00 | 0.00 | 88 | 1016.7 | |
| 20260507014725 | -4 | 0.0 | 0.0 | 0.00 | 0.00 | 0.00 | 88 | 1016.5 | |
| 20260507012725 | -4 | 0.0 | 0.0 | 0.00 | 0.00 | 0.00 | 86 | 1016.5 | |
| 20260507010725 | -4 | 0.0 | 0.0 | 0.00 | 0.00 | 0.00 | 85 | 1016.4 | |
| 20260507004724 | -3 | 0.0 | 0.0 | 0.00 | 0.00 | 0.00 | 85 | 1016.2 | |
| 20260507002725 | -3 | 0.0 | 0.0 | 0.00 | 0.00 | 0.00 | 83 | 1016.3 | |
| 20260507000725 | -3 | 0.0 | 0.0 | 0.00 | 0.00 | 0.00 | 83 | 1016.1 | |
| 20260506234725 | -3 | 0.0 | 0.0 | 0.00 | 0.00 | 0.00 | 83 | 1015.9 | |
| 20260506232724 | -3 | 0.0 | 0.0 | 0.00 | 0.00 | 0.00 | 80 | 1015.8 | |
| 20260506230726 | -2 | 0.0 | 0.0 | 0.00 | 0.00 | 0.00 | 79 | 1015.7 | |
| 20260506224724 | -2 | 0.0 | 0.0 | 0.00 | 0.00 | 0.00 | 78 | 1015.7 | |
| 20260506222725 | -2 | 0.0 | 0.0 | 0.00 | 0.00 | 0.00 | 76 | 1015.6 | |
| 20260506220725 | -2 | 0.0 | 0.0 | 0.00 | 0.00 | 0.00 | 75 | 1015.4 | |
| 20260506214724 | -1 | 0.0 | 0.0 | 0.00 | 0.00 | 0.00 | 73 | 1015.3 | |
| 20260506212725 | -1 | 0.0 | 0.0 | 0.00 | 0.00 | 0.00 | 73 | 1015.2 | |
| 20260506210724 | -1 | 0.0 | 0.0 | 0.00 | 0.00 | 0.00 | 70 | 1015.1 | |
| 20260506204724 | 0 | 0.0 | 0.0 | 0.00 | 0.00 | 0.00 | 68 | 1015.1 | |
| 20260506202724 | 0 | 0.0 | 0.0 | 0.00 | 0.00 | 0.00 | 63 | 1015.0 | |
| 20260506200724 | 0 | 0.0 | 0.0 | 0.00 | 0.00 | 0.00 | 59 | 1015.0 | |
| 20260506194723 | 1 | 0.0 | 0.0 | 0.00 | 0.00 | 0.00 | 55 | 1014.8 | |
| 20260506192723 | 2 | 0.0 | 0.0 | 0.00 | 0.00 | 0.00 | 50 | 1014.7 | |
| 20260506190723 | 4 | 0.0 | 0.0 | 0.00 | 0.00 | 0.00 | 42 | 1014.6 | |
| 20260506184723 | 6 | 0.0 | 0.0 | 0.00 | 0.00 | 0.00 | 34 | 1014.4 | |
| 20260506182724 | 6 | 0.0 | 0.0 | 0.00 | 0.00 | 0.00 | 32 | 1014.2 | |
| 20260506180724 | 7 | 0.0 | 0.0 | 0.00 | 0.00 | 0.00 | 30 | 1014.1 | |
| 20260506174724 | 7 | 0.0 | 0.0 | 0.00 | 0.00 | 0.00 | 29 | 1013.9 | |
| 20260506172722 | 8 | 0.0 | 0.0 | 0.00 | 0.00 | 0.00 | 28 | 1013.7 | |
| 20260506170723 | 8 | 0.0 | 0.0 | 0.00 | 0.00 | 0.00 | 28 | 1013.6 | |
| 20260506164722 | 8 | 0.0 | 0.0 | 0.00 | 0.00 | 0.00 | 27 | 1013.4 | |
| 20260506162723 | 8 | 0.0 | 0.0 | 0.00 | 0.00 | 0.00 | 26 | 1013.4 | |
| 20260506160723 | 9 | 0.0 | 0.0 | 0.00 | 0.00 | 0.00 | 25 | 1013.3 | |
| 20260506154723 | 9 | 0.0 | 0.0 | 0.00 | 0.00 | 0.00 | 23 | 1013.4 | |
| 20260506152723 | 9 | 0.0 | 0.0 | 0.00 | 0.00 | 0.00 | 22 | 1013.3 | |
| 20260506150722 | 9 | 0.0 | 0.0 | 0.00 | 0.00 | 0.00 | 22 | 1013.3 | |
| 20260506144722 | 10 | 0.0 | 0.0 | 0.00 | 0.00 | 0.00 | 25 | 1013.3 | |
| 20260506142722 | 10 | 0.0 | 0.0 | 0.00 | 0.00 | 0.00 | 25 | 1013.2 | |
| 20260506140722 | 10 | 0.0 | 0.0 | 0.00 | 0.00 | 0.00 | 27 | 1013.1 | |
| 20260506134722 | 10 | 0.0 | 0.0 | 0.00 | 0.00 | 0.00 | 25 | 1013.2 | |
| 20260506132722 | 10 | 0.0 | 0.0 | 0.00 | 0.00 | 0.00 | 21 | 1013.1 | |
| 20260506130721 | 10 | 0.0 | 0.0 | 0.00 | 0.00 | 0.00 | 25 | 1012.9 | |
| 20260506124722 | 10 | 0.0 | 0.0 | 0.00 | 0.00 | 0.00 | 24 | 1012.9 | |
| 20260506123047 | 10 | 0.0 | 0.0 | 0.00 | 0.00 | 0.00 | 24 | 1012.7 | |
| 20260506120722 | 10 | 0.0 | 0.0 | 0.00 | 0.00 | 0.00 | 25 | 1012.7 | |
| 20260506114722 | 10 | 0.0 | 0.0 | 0.00 | 0.00 | 0.00 | 23 | 1012.7 | |
| 20260506112722 | 10 | 0.0 | 0.0 | 0.00 | 0.00 | 0.00 | 24 | 1012.5 | |
| 20260506110722 | 9 | 0.0 | 0.0 | 0.00 | 0.00 | 0.00 | 23 | 1012.5 | |
| 20260506104723 | 9 | 0.0 | 0.0 | 0.00 | 0.00 | 0.00 | 23 | 1012.5 | |
| 20260506102723 | 10 | 0.0 | 0.0 | 0.00 | 0.00 | 0.00 | 27 | 1012.2 | |
| 20260506100723 | 9 | 0.0 | 0.0 | 0.00 | 0.00 | 0.00 | 29 | 1012.2 | |
| 20260506094723 | 9 | 0.0 | 0.0 | 0.00 | 0.00 | 0.00 | 27 | 1012.0 | |
| 20260506092723 | 9 | 0.0 | 0.0 | 0.00 | 0.00 | 0.00 | 26 | 1011.9 | |
| 20260506090723 | 8 | 0.0 | 0.0 | 0.00 | 0.00 | 0.00 | 29 | 1011.9 | |
| 20260506084723 | 8 | 0.0 | 0.0 | 0.00 | 0.00 | 0.00 | 31 | 1011.9 | |
| 20260506082723 | 8 | 0.0 | 0.0 | 0.00 | 0.00 | 0.00 | 35 | 1011.7 | |
| 20260506080722 | 7 | 0.0 | 0.0 | 0.00 | 0.00 | 0.00 | 34 | 1011.6 |